Time,TemperatureF,DewpointF,PressureIn,WindDirection,WindDirectionDegrees,WindSpeedMPH,WindSpeedGustMPH,Humidity,HourlyPrecipIn,Conditions,Clouds,dailyrainin,SoftwareType,DateUTC
2013-05-17 00:07:00,74.1,52.5,30.09,North,-999,0.0,0.0,47,0.00,,,-99.99,FreeWX 2.05,2013-05-17 04:07:00,
2013-05-17 00:17:00,74.1,52.5,30.09,North,-999,0.0,0.0,47,0.00,,,-99.99,FreeWX 2.05,2013-05-17 04:17:00,
2013-05-17 00:27:00,73.9,53.1,30.09,North,-999,0.0,0.0,48,0.00,,,-99.99,FreeWX 2.05,2013-05-17 04:27:00,
2013-05-17 00:37:00,73.8,52.9,30.09,North,-999,0.0,0.0,48,0.00,,,-99.99,FreeWX 2.05,2013-05-17 04:37:00,
2013-05-17 00:47:00,73.6,52.7,30.06,North,-999,0.0,0.0,48,0.00,,,-99.99,FreeWX 2.05,2013-05-17 04:47:00,
2013-05-17 00:57:00,73.4,53.1,30.06,North,-999,0.0,0.0,49,0.00,,,-99.99,FreeWX 2.05,2013-05-17 04:57:00,
2013-05-17 01:07:00,73.2,52.9,30.06,North,-999,0.0,0.0,49,0.00,,,-99.99,FreeWX 2.05,2013-05-17 05:07:00,
2013-05-17 01:17:00,73.0,53.2,30.06,North,-999,0.0,0.0,50,0.00,,,-99.99,FreeWX 2.05,2013-05-17 05:17:00,
2013-05-17 01:27:00,72.9,53.1,30.06,North,-999,0.0,0.0,50,0.00,,,-99.99,FreeWX 2.05,2013-05-17 05:27:00,
2013-05-17 01:37:00,72.5,53.2,30.06,North,-999,0.0,0.0,51,0.00,,,-99.99,FreeWX 2.05,2013-05-17 05:37:00,
2013-05-17 01:47:00,72.5,53.8,30.06,North,-999,0.0,0.0,52,0.00,,,-99.99,FreeWX 2.05,2013-05-17 05:47:00,
2013-05-17 01:57:00,72.5,53.8,30.06,North,-999,0.0,0.0,52,0.00,,,-99.99,FreeWX 2.05,2013-05-17 05:57:00,
2013-05-17 02:07:00,72.3,54.1,30.06,North,-999,0.0,0.0,53,0.00,,,-99.99,FreeWX 2.05,2013-05-17 06:07:00,
2013-05-17 02:17:00,72.3,54.7,30.06,North,-999,0.0,0.0,54,0.00,,,-99.99,FreeWX 2.05,2013-05-17 06:17:00,
2013-05-17 02:27:00,72.3,55.2,30.06,North,-999,0.0,3.1,55,0.00,,,-99.99,FreeWX 2.05,2013-05-17 06:27:00,
2013-05-17 02:37:00,72.1,55.6,30.06,North,-999,0.0,3.1,56,0.00,,,-99.99,FreeWX 2.05,2013-05-17 06:37:00,
2013-05-17 02:47:00,72.1,56.1,30.06,North,-999,0.0,3.1,57,0.00,,,-99.99,FreeWX 2.05,2013-05-17 06:47:00,
2013-05-17 02:57:00,72.1,55.6,30.06,North,-999,0.0,3.6,56,0.00,,,-99.99,FreeWX 2.05,2013-05-17 06:57:00,
2013-05-17 03:07:00,72.3,54.7,30.06,North,-999,0.0,2.7,54,0.00,,,-99.99,FreeWX 2.05,2013-05-17 07:07:00,
2013-05-17 03:17:00,72.3,53.8,30.06,North,-999,0.0,2.7,52,0.00,,,-99.99,FreeWX 2.05,2013-05-17 07:17:00,
2013-05-17 03:27:00,72.3,52.7,30.06,North,-999,0.0,2.7,50,0.00,,,-99.99,FreeWX 2.05,2013-05-17 07:27:00,
2013-05-17 03:37:00,72.3,52.2,30.06,North,-999,0.0,0.0,49,0.00,,,-99.99,FreeWX 2.05,2013-05-17 07:37:00,
2013-05-17 03:47:00,72.3,51.4,30.06,North,-999,0.0,0.0,48,0.00,,,-99.99,FreeWX 2.05,2013-05-17 07:47:00,
2013-05-17 03:57:00,72.1,50.2,30.06,North,-999,0.0,2.7,46,0.00,,,-99.99,FreeWX 2.05,2013-05-17 07:57:00,
2013-05-17 04:07:00,72.1,50.2,30.06,North,-999,0.0,0.0,46,0.00,,,-99.99,FreeWX 2.05,2013-05-17 08:07:00,
2013-05-17 04:17:00,72.0,50.0,30.06,North,-999,0.0,0.0,46,0.00,,,-99.99,FreeWX 2.05,2013-05-17 08:17:00,
2013-05-17 04:27:00,71.8,49.3,30.06,North,-999,0.0,0.0,45,0.00,,,-99.99,FreeWX 2.05,2013-05-17 08:27:00,
2013-05-17 04:37:00,71.8,49.3,30.06,North,-999,0.0,0.0,45,0.00,,,-99.99,FreeWX 2.05,2013-05-17 08:37:00,
2013-05-17 04:47:00,71.6,49.6,30.06,North,-999,0.0,0.0,46,0.00,,,-99.99,FreeWX 2.05,2013-05-17 08:47:00,
2013-05-17 04:57:00,71.4,49.5,30.06,North,-999,0.0,0.0,46,0.00,,,-99.99,FreeWX 2.05,2013-05-17 08:57:00,
2013-05-17 05:07:00,71.2,49.5,30.06,North,-999,0.0,0.0,46,0.00,,,-99.99,FreeWX 2.05,2013-05-17 09:07:00,
2013-05-17 05:17:00,71.1,49.3,30.06,North,-999,0.0,0.0,46,0.00,,,-99.99,FreeWX 2.05,2013-05-17 09:17:00,
2013-05-17 05:27:00,71.1,49.8,30.06,North,-999,0.0,0.0,47,0.00,,,-99.99,FreeWX 2.05,2013-05-17 09:27:00,
2013-05-17 05:37:00,70.9,49.6,30.06,North,-999,0.0,0.0,47,0.00,,,-99.99,FreeWX 2.05,2013-05-17 09:37:00,
2013-05-17 05:47:00,70.9,50.2,30.06,North,-999,0.0,0.0,48,0.00,,,-99.99,FreeWX 2.05,2013-05-17 09:47:00,
2013-05-17 05:57:00,70.7,50.0,30.06,North,-999,0.0,0.0,48,0.00,,,-99.99,FreeWX 2.05,2013-05-17 09:57:00,
2013-05-17 06:07:00,70.5,50.4,30.06,North,-999,0.0,0.0,49,0.00,,,-99.99,FreeWX 2.05,2013-05-17 10:07:00,
2013-05-17 06:17:00,70.3,50.2,30.06,North,-999,0.0,0.0,49,0.00,,,-99.99,FreeWX 2.05,2013-05-17 10:17:00,
2013-05-17 06:27:00,70.3,50.7,30.06,North,-999,0.0,0.0,50,0.00,,,-99.99,FreeWX 2.05,2013-05-17 10:27:00,
2013-05-17 06:37:00,70.3,50.7,30.09,North,-999,0.0,0.0,50,0.00,,,-99.99,FreeWX 2.05,2013-05-17 10:37:00,
2013-05-17 06:47:00,70.3,51.3,30.09,North,-999,0.0,0.0,51,0.00,,,-99.99,FreeWX 2.05,2013-05-17 10:47:00,
2013-05-17 06:57:00,70.2,51.3,30.09,North,-999,0.0,0.0,51,0.00,,,-99.99,FreeWX 2.05,2013-05-17 10:57:00,
2013-05-17 07:07:00,70.3,51.8,30.09,North,-999,0.0,0.0,52,0.00,,,-99.99,FreeWX 2.05,2013-05-17 11:07:00,
2013-05-17 07:17:00,70.3,51.8,30.09,North,-999,0.0,0.0,52,0.00,,,-99.99,FreeWX 2.05,2013-05-17 11:17:00,
2013-05-17 07:27:00,70.7,52.7,30.09,North,-999,0.0,0.0,53,0.00,,,-99.99,FreeWX 2.05,2013-05-17 11:27:00,
2013-05-17 07:37:00,71.1,53.1,30.09,North,-999,0.0,0.0,53,0.00,,,-99.99,FreeWX 2.05,2013-05-17 11:37:00,
2013-05-17 07:47:00,71.4,53.4,30.09,North,-999,0.0,2.7,53,0.00,,,-99.99,FreeWX 2.05,2013-05-17 11:47:00,
2013-05-17 07:57:00,71.8,54.1,30.09,North,-999,0.0,3.6,54,0.00,,,-99.99,FreeWX 2.05,2013-05-17 11:57:00,
2013-05-17 08:07:00,72.3,54.7,30.09,North,350,1.0,4.0,54,0.00,,,-99.99,FreeWX 2.05,2013-05-17 12:07:00,
2013-05-17 08:17:00,72.9,55.2,30.09,North,-999,0.0,3.1,54,0.00,,,-99.99,FreeWX 2.05,2013-05-17 12:17:00,
2013-05-17 08:27:00,73.6,55.9,30.09,North,-999,0.0,4.9,54,0.00,,,-99.99,FreeWX 2.05,2013-05-17 12:27:00,
2013-05-17 08:37:00,74.1,56.5,30.09,North,-999,0.0,4.9,54,0.00,,,-99.99,FreeWX 2.05,2013-05-17 12:37:00,
2013-05-17 08:47:00,74.7,55.8,30.09,North,-999,0.0,5.4,52,0.00,,,-99.99,FreeWX 2.05,2013-05-17 12:47:00,
2013-05-17 08:57:00,75.2,55.8,30.09,North,-999,0.0,3.6,51,0.00,,,-99.99,FreeWX 2.05,2013-05-17 12:57:00,
2013-05-17 09:07:00,75.9,55.9,30.09,North,-999,0.0,5.4,50,0.00,,,-99.99,FreeWX 2.05,2013-05-17 13:07:00,
2013-05-17 09:17:00,76.5,55.2,30.09,NNE,12,1.0,4.9,48,0.00,,,-99.99,FreeWX 2.05,2013-05-17 13:17:00,
2013-05-17 09:27:00,76.8,53.8,30.09,NNE,20,3.0,7.8,45,0.00,,,-99.99,FreeWX 2.05,2013-05-17 13:27:00,
2013-05-17 09:37:00,77.4,53.8,30.12,NNE,24,3.0,7.4,44,0.00,,,-99.99,FreeWX 2.05,2013-05-17 13:37:00,
2013-05-17 09:47:00,77.9,52.9,30.12,North,10,2.0,6.7,42,0.00,,,-99.99,FreeWX 2.05,2013-05-17 13:47:00,
2013-05-17 09:57:00,78.3,52.0,30.12,NE,41,3.0,6.7,40,0.00,,,-99.99,FreeWX 2.05,2013-05-17 13:57:00,
2013-05-17 10:07:00,78.8,52.3,30.12,North,1,3.0,6.3,40,0.00,,,-99.99,FreeWX 2.05,2013-05-17 14:07:00,
2013-05-17 10:17:00,79.2,50.5,30.12,NE,43,4.0,7.4,37,0.00,,,-99.99,FreeWX 2.05,2013-05-17 14:17:00,
2013-05-17 10:27:00,79.5,48.7,30.12,NE,48,4.0,8.7,34,0.00,,,-99.99,FreeWX 2.05,2013-05-17 14:27:00,
2013-05-17 10:37:00,79.9,47.3,30.12,NE,47,4.0,7.8,32,0.00,,,-99.99,FreeWX 2.05,2013-05-17 14:37:00,
2013-05-17 10:47:00,80.4,47.8,30.12,NE,51,4.0,7.4,32,0.00,,,-99.99,FreeWX 2.05,2013-05-17 14:47:00,
2013-05-17 10:57:00,81.1,47.7,30.12,NNE,18,3.0,6.7,31,0.00,,,-99.99,FreeWX 2.05,2013-05-17 14:57:00,
2013-05-17 11:07:00,81.7,47.1,30.12,NNE,29,4.0,7.4,30,0.00,,,-99.99,FreeWX 2.05,2013-05-17 15:07:00,
2013-05-17 11:17:00,82.6,47.1,30.12,NNE,29,4.0,8.3,29,0.00,,,-99.99,FreeWX 2.05,2013-05-17 15:17:00,
2013-05-17 11:27:00,83.1,47.5,30.12,NNE,23,3.0,8.3,29,0.00,,,-99.99,FreeWX 2.05,2013-05-17 15:27:00,
2013-05-17 11:37:00,83.5,46.0,30.12,NNE,32,3.0,8.7,27,0.00,,,-99.99,FreeWX 2.05,2013-05-17 15:37:00,
2013-05-17 11:47:00,84.0,45.5,30.12,NE,42,4.0,7.4,26,0.00,,,-99.99,FreeWX 2.05,2013-05-17 15:47:00,
2013-05-17 11:57:00,84.2,43.5,30.12,NE,46,4.0,6.9,24,0.00,,,-99.99,FreeWX 2.05,2013-05-17 15:57:00,
2013-05-17 12:07:00,84.7,43.9,30.12,NE,45,2.0,6.3,24,0.00,,,-99.99,FreeWX 2.05,2013-05-17 16:07:00,
2013-05-17 12:17:00,84.9,44.1,30.12,NE,51,4.0,7.4,24,0.00,,,-99.99,FreeWX 2.05,2013-05-17 16:17:00,
2013-05-17 12:27:00,83.7,43.0,30.12,ENE,64,3.0,6.9,24,0.00,,,-99.99,FreeWX 2.05,2013-05-17 16:27:00,
2013-05-17 12:37:00,83.1,42.6,30.12,ENE,65,3.0,6.7,24,0.00,,,-99.99,FreeWX 2.05,2013-05-17 16:37:00,
2013-05-17 12:47:00,82.4,43.0,30.12,ENE,68,4.0,8.3,25,0.00,,,-99.99,FreeWX 2.05,2013-05-17 16:47:00,
2013-05-17 12:57:00,81.9,43.5,30.12,ENE,75,4.0,8.7,26,0.00,,,-99.99,FreeWX 2.05,2013-05-17 16:57:00,
2013-05-17 13:07:00,82.6,45.1,30.09,East,87,3.0,8.3,27,0.00,,,-99.99,FreeWX 2.05,2013-05-17 17:07:00,
2013-05-17 13:17:00,82.8,44.4,30.09,East,93,2.0,6.3,26,0.00,,,-99.99,FreeWX 2.05,2013-05-17 17:17:00,
2013-05-17 13:27:00,82.9,44.4,30.09,ESE,118,3.0,7.8,26,0.00,,,-99.99,FreeWX 2.05,2013-05-17 17:27:00,
2013-05-17 13:37:00,83.7,41.9,30.09,SE,124,3.0,11.0,23,0.00,,,-99.99,FreeWX 2.05,2013-05-17 17:37:00,
2013-05-17 13:47:00,84.6,42.6,30.09,East,97,4.0,8.3,23,0.00,,,-99.99,FreeWX 2.05,2013-05-17 17:47:00,
2013-05-17 13:57:00,83.7,40.8,30.09,ENE,71,4.0,10.1,22,0.00,,,-99.99,FreeWX 2.05,2013-05-17 17:57:00,
2013-05-17 14:07:00,84.9,43.0,30.09,East,85,4.0,9.2,23,0.00,,,-99.99,FreeWX 2.05,2013-05-17 18:07:00,
2013-05-17 14:17:00,86.0,42.6,30.09,East,85,4.0,8.7,22,0.00,,,-99.99,FreeWX 2.05,2013-05-17 18:17:00,
2013-05-17 14:27:00,86.5,43.2,30.09,ENE,78,4.0,10.1,22,0.00,,,-99.99,FreeWX 2.05,2013-05-17 18:27:00,
2013-05-17 14:37:00,87.1,42.4,30.09,ENE,65,4.0,7.8,21,0.00,,,-99.99,FreeWX 2.05,2013-05-17 18:37:00,
2013-05-17 14:47:00,87.3,42.4,30.09,East,88,4.0,8.7,21,0.00,,,-99.99,FreeWX 2.05,2013-05-17 18:47:00,
2013-05-17 14:57:00,87.4,41.4,30.09,ESE,119,3.0,11.0,20,0.00,,,-99.99,FreeWX 2.05,2013-05-17 18:57:00,
2013-05-17 15:07:00,87.6,40.3,30.09,East,98,4.0,8.7,19,0.00,,,-99.99,FreeWX 2.05,2013-05-17 19:07:00,
2013-05-17 15:17:00,87.6,40.3,30.09,ESE,110,4.0,8.3,19,0.00,,,-99.99,FreeWX 2.05,2013-05-17 19:17:00,
2013-05-17 15:27:00,88.0,40.5,30.09,East,92,4.0,9.2,19,0.00,,,-99.99,FreeWX 2.05,2013-05-17 19:27:00,
2013-05-17 15:37:00,88.2,42.1,30.09,East,90,4.0,8.7,20,0.00,,,-99.99,FreeWX 2.05,2013-05-17 19:37:00,
2013-05-17 15:47:00,88.2,42.1,30.09,ESE,108,3.0,8.7,20,0.00,,,-99.99,FreeWX 2.05,2013-05-17 19:47:00,
2013-05-17 15:57:00,87.6,41.5,30.09,ESE,110,4.0,8.3,20,0.00,,,-99.99,FreeWX 2.05,2013-05-17 19:57:00,
2013-05-17 16:07:00,87.3,39.9,30.09,SE,135,3.0,8.7,19,0.00,,,-99.99,FreeWX 2.05,2013-05-17 20:07:00,
2013-05-17 16:17:00,87.3,41.2,30.09,East,97,3.0,9.2,20,0.00,,,-99.99,FreeWX 2.05,2013-05-17 20:17:00,
2013-05-17 16:27:00,87.6,41.5,30.09,ESE,106,3.0,9.2,20,0.00,,,-99.99,FreeWX 2.05,2013-05-17 20:27:00,
2013-05-17 16:37:00,86.9,39.6,30.06,SE,130,3.0,9.6,19,0.00,,,-99.99,FreeWX 2.05,2013-05-17 20:37:00,
2013-05-17 16:47:00,86.5,39.4,30.06,SE,129,3.0,10.1,19,0.00,,,-99.99,FreeWX 2.05,2013-05-17 20:47:00,
2013-05-17 16:57:00,86.2,40.5,30.06,SE,131,3.0,7.8,20,0.00,,,-99.99,FreeWX 2.05,2013-05-17 20:57:00,
2013-05-17 17:07:00,86.2,40.5,30.06,East,94,3.0,7.4,20,0.00,,,-99.99,FreeWX 2.05,2013-05-17 21:07:00,
2013-05-17 17:17:00,86.2,40.5,30.06,East,93,4.0,8.3,20,0.00,,,-99.99,FreeWX 2.05,2013-05-17 21:17:00,
2013-05-17 17:27:00,85.3,39.6,30.06,SSE,149,2.0,8.7,20,0.00,,,-99.99,FreeWX 2.05,2013-05-17 21:27:00,
2013-05-17 17:37:00,84.6,40.3,30.06,ESE,121,4.0,9.6,21,0.00,,,-99.99,FreeWX 2.05,2013-05-17 21:37:00,
2013-05-17 17:47:00,84.6,40.3,30.06,East,95,4.0,7.8,21,0.00,,,-99.99,FreeWX 2.05,2013-05-17 21:47:00,
2013-05-17 17:57:00,84.2,39.9,30.06,ESE,102,4.0,8.3,21,0.00,,,-99.99,FreeWX 2.05,2013-05-17 21:57:00,
2013-05-17 18:07:00,83.8,39.7,30.06,East,97,4.0,10.1,21,0.00,,,-99.99,FreeWX 2.05,2013-05-17 22:07:00,
2013-05-17 18:17:00,83.8,40.8,30.06,East,87,3.0,6.9,22,0.00,,,-99.99,FreeWX 2.05,2013-05-17 22:17:00,
2013-05-17 18:27:00,83.5,40.6,30.06,East,84,3.0,8.7,22,0.00,,,-99.99,FreeWX 2.05,2013-05-17 22:27:00,
2013-05-17 18:37:00,82.8,41.2,30.06,East,97,4.0,10.5,23,0.00,,,-99.99,FreeWX 2.05,2013-05-17 22:37:00,
2013-05-17 18:47:00,82.2,41.7,30.06,East,88,2.0,6.9,24,0.00,,,-99.99,FreeWX 2.05,2013-05-17 22:47:00,
2013-05-17 18:57:00,81.7,43.5,30.06,SE,127,3.0,7.4,26,0.00,,,-99.99,FreeWX 2.05,2013-05-17 22:57:00,
2013-05-17 19:07:00,81.1,45.0,30.06,SE,130,3.0,7.4,28,0.00,,,-99.99,FreeWX 2.05,2013-05-17 23:07:00,
2013-05-17 19:17:00,80.8,45.5,30.06,ESE,120,3.0,9.2,29,0.00,,,-99.99,FreeWX 2.05,2013-05-17 23:17:00,
2013-05-17 19:27:00,80.4,45.1,30.06,ESE,118,3.0,7.4,29,0.00,,,-99.99,FreeWX 2.05,2013-05-17 23:27:00,
2013-05-17 19:37:00,80.1,45.9,30.06,SE,124,2.0,6.9,30,0.00,,,-99.99,FreeWX 2.05,2013-05-17 23:37:00,
2013-05-17 19:47:00,79.7,45.5,30.06,SE,125,2.0,7.8,30,0.00,,,-99.99,FreeWX 2.05,2013-05-17 23:47:00,
2013-05-17 19:57:00,79.2,45.9,30.06,SSE,160,1.0,6.7,31,0.00,,,-99.99,FreeWX 2.05,2013-05-17 23:57:00,
2013-05-17 20:07:00,78.8,45.5,30.06,SE,137,1.0,5.8,31,0.00,,,-99.99,FreeWX 2.05,2013-05-18 00:07:00,
2013-05-17 20:17:00,78.6,45.5,30.06,ESE,118,2.0,6.9,31,0.00,,,-99.99,FreeWX 2.05,2013-05-18 00:17:00,
2013-05-17 20:27:00,78.3,46.0,30.06,SSE,151,1.0,4.5,32,0.00,,,-99.99,FreeWX 2.05,2013-05-18 00:27:00,
2013-05-17 20:37:00,77.9,45.7,30.06,North,-999,0.0,5.8,32,0.00,,,-99.99,FreeWX 2.05,2013-05-18 00:37:00,
2013-05-17 20:47:00,77.7,46.2,30.06,North,-999,0.0,4.5,33,0.00,,,-99.99,FreeWX 2.05,2013-05-18 00:47:00,
2013-05-17 20:57:00,77.5,46.9,30.06,North,-999,0.0,4.5,34,0.00,,,-99.99,FreeWX 2.05,2013-05-18 00:57:00,
2013-05-17 21:07:00,77.4,46.8,30.09,North,-999,0.0,3.6,34,0.00,,,-99.99,FreeWX 2.05,2013-05-18 01:07:00,
2013-05-17 21:17:00,77.4,46.8,30.09,North,-999,0.0,4.0,34,0.00,,,-99.99,FreeWX 2.05,2013-05-18 01:17:00,
2013-05-17 21:27:00,77.2,47.3,30.09,North,-999,0.0,3.6,35,0.00,,,-99.99,FreeWX 2.05,2013-05-18 01:27:00,
2013-05-17 21:37:00,77.0,47.3,30.09,North,-999,0.0,3.6,35,0.00,,,-99.99,FreeWX 2.05,2013-05-18 01:37:00,
2013-05-17 21:47:00,76.6,47.7,30.09,North,-999,0.0,0.0,36,0.00,,,-99.99,FreeWX 2.05,2013-05-18 01:47:00,
2013-05-17 21:57:00,76.6,47.7,30.09,North,-999,0.0,0.0,36,0.00,,,-99.99,FreeWX 2.05,2013-05-18 01:57:00,
2013-05-17 22:07:00,76.5,48.2,30.09,North,-999,0.0,0.0,37,0.00,,,-99.99,FreeWX 2.05,2013-05-18 02:07:00,
2013-05-17 22:17:00,76.3,48.0,30.09,North,-999,0.0,0.0,37,0.00,,,-99.99,FreeWX 2.05,2013-05-18 02:17:00,
2013-05-17 22:27:00,75.9,48.4,30.09,North,-999,0.0,0.0,38,0.00,,,-99.99,FreeWX 2.05,2013-05-18 02:27:00,
2013-05-17 22:37:00,75.6,49.5,30.12,North,-999,0.0,0.0,40,0.00,,,-99.99,FreeWX 2.05,2013-05-18 02:37:00,
2013-05-17 22:47:00,75.4,49.3,30.12,North,-999,0.0,0.0,40,0.00,,,-99.99,FreeWX 2.05,2013-05-18 02:47:00,
2013-05-17 22:57:00,75.2,49.8,30.12,North,-999,0.0,0.0,41,0.00,,,-99.99,FreeWX 2.05,2013-05-18 02:57:00,
2013-05-17 23:07:00,75.0,49.6,30.12,North,-999,0.0,0.0,41,0.00,,,-99.99,FreeWX 2.05,2013-05-18 03:07:00,
2013-05-17 23:17:00,75.0,49.6,30.12,North,-999,0.0,0.0,41,0.00,,,-99.99,FreeWX 2.05,2013-05-18 03:17:00,
2013-05-17 23:27:00,74.7,49.5,30.12,North,-999,0.0,0.0,41,0.00,,,-99.99,FreeWX 2.05,2013-05-18 03:27:00,
2013-05-17 23:37:00,74.7,50.0,30.12,North,-999,0.0,0.0,42,0.00,,,-99.99,FreeWX 2.05,2013-05-18 03:37:00,
2013-05-17 23:47:00,74.7,50.0,30.12,North,-999,0.0,0.0,42,0.00,,,-99.99,FreeWX 2.05,2013-05-18 03:47:00,
2013-05-17 23:57:00,74.7,50.0,30.12,North,-999,0.0,0.0,42,0.00,,,-99.99,FreeWX 2.05,2013-05-18 03:57:00,